CAPE
0 0 0 0 0 0 0 0 6 10 0 0 0 0 0 0 0 1 32 46 0 9 360 403 921 851 639 413 241 166 117 34 0 0 0 0 0 0 0 0 0 0 0 0 0 0 0 0 0
0 0 0 0 0 0 2 0 30 47 49 0 0 0 1 0 0 0 4 68 5 24 483 134 1046 1004 879 741 489 395 302 140 39 0 0 0 0 0 0 0 0 0 0 0 1 0 2 5 0
0 0 0 0 0 1 74 74 40 40 7 0 0 0 0 1 0 0 66 95 45 26 449 255 1156 1128 1095 960 715 606 526 407 115 25 16 10 9 8 8 12 21 14 46 40 12 8 11 10 28
0 0 0 0 12 94 56 118 90 12 43 0 0 0 0 0 0 0 39 47 27 24 165 1080 1207 1347 1287 1141 962 873 748 645 386 150 129 75 62 82 54 39 65 163 236 235 192 170 98 89 107
0 0 0 0 0 0 34 49 88 59 65 15 9 0 9 1 0 0 43 46 30 29 53 716 1494 1519 1537 1366 1174 1116 1004 921 792 367 242 188 352 449 366 310 525 728 625 513 398 389 413 310 270
0 0 0 0 0 1 24 30 82 93 70 52 0 0 7 1 0 0 3 87 50 35 74 201 1672 1657 1622 1526 1367 1339 1287 1208 1125 993 830 773 907 869 650 788 984 721 566 303 202 230 433 398 297
0 0 0 0 1 1 8 10 32 37 33 49 9 0 14 75 4 0 14 53 111 64 119 150 1667 1664 1746 1666 1528 1535 1551 1533 1442 1360 1196 1330 1239 1398 1242 1200 827 615 277 87 88 91 151 366 284
0 0 0 0 0 0 2 11 1 28 47 14 0 2 40 41 15 31 34 61 67 147 131 192 633 1671 1374 939 1855 1807 1806 1762 1630 1615 1548 1661 1453 1595 1406 1225 758 341 90 108 11 4 46 145 378
0 0 0 0 0 2 7 5 28 16 18 26 4 8 1 10 0 7 28 44 84 84 187 258 214 693 1168 777 1125 1891 1641 1627 1758 1454 1578 1690 749 490 1047 1018 635 322 176 52 44 27 0 2 72
0 0 0 0 0 2 17 14 4 37 16 16 3 0 31 33 13 53 43 20 49 132 123 197 383 728 945 634 1308 1691 1054 1041 964 893 1046 1402 1251 782 531 674 279 256 226 115 26 5 15 25 0
0 0 9 30 44 26 31 39 28 26 54 27 54 0 24 25 53 61 20 14 46 86 148 196 1511 1768 1244 902 839 1599 1383 1087 1339 1475 2108 1819 933 543 539 676 802 579 695 415 297 219 131 46 23
0 0 13 16 34 25 19 46 58 40 28 29 0 0 0 20 19 22 6 3 20 44 191 127 611 2054 2310 1427 842 1075 1457 1512 1232 1198 2139 1739 938 919 828 690 571 638 438 475 326 136 481 88 36
0 0 0 0 0 9 1 1 14 5 23 12 0 0 0 5 11 0 0 0 10 10 58 149 873 2376 2573 2872 1178 1351 1593 1180 1184 972 1051 996 701 1219 808 967 709 1017 542 388 238 499 536 421 99
0 1 8 2 1 11 3 0 0 2 2 0 0 0 0 0 0 0 0 0 13 107 78 198 730 2609 2152 2484 3002 2340 2404 1197 818 617 589 989 874 1366 825 1119 945 696 722 555 450 277 320 354 248
0 4 8 1 8 1 2 0 0 0 0 0 0 0 0 0 0 0 0 49 35 22 559 826 1447 2559 2810 2634 2684 2178 1411 1094 759 536 826 592 1135 1215 1173 892 987 1067 1339 773 890 600 692 259 168
0 15 2 0 0 5 47 0 0 0 0 0 0 0 0 0 0 0 0 73 101 326 620 400 364 1197 2446 2698 2393 1823 990 767 392 375 477 998 1162 1193 1108 1064 971 1201 1171 1236 728 689 561 359 218
0 0 0 0 1 14 61 0 0 0 3 2 0 0 0 0 0 34 0 0 116 397 448 550 1119 966 2013 2709 2006 1749 1665 620 357 445 573 804 1094 1021 1347 1186 1196 1257 1139 1363 804 779 697 670 239
0 0 0 0 0 17 25 4 1 8 0 0 0 7 0 0 0 7 30 0 11 132 325 812 954 1615 2568 2051 1821 806 578 547 383 538 618 784 987 1201 1335 1261 1337 1234 953 236 403 657 717 758 771
0 0 0 0 0 15 0 2 31 9 0 0 0 7 1 0 0 0 0 122 108 157 555 749 779 2228 1992 1331 793 602 491 597 423 499 689 845 943 952 1413 1245 1139 886 409 586 606 181 107 914 593
0 0 0 0 0 22 3 27 11 1 0 0 0 0 0 0 0 0 0 334 189 333 530 624 807 1501 1471 982 1049 660 610 384 413 540 795 941 948 1385 1119 1213 1120 836 577 439 328 565 544 688 820
0 0 0 0 0 7 10 2 0 0 0 0 0 0 0 0 0 0 0 407 327 419 565 674 875 1135 1410 1352 1024 566 557 652 615 417 692 964 959 966 1133 1003 943 729 911 516 877 848 658 823 904
0 0 0 0 0 0 0 0 0 0 0 0 0 0 0 0 0 0 143 507 457 514 595 731 908 986 816 1046 1224 1282 580 338 446 553 413 1031 771 765 670 738 643 575 781 907 939 1123 948 992 889
0 0 0 0 0 0 0 0 0 0 0 0 0 0 0 0 0 0 306 504 554 512 542 792 855 731 773 701 919 595 462 215 296 310 656 1006 918 741 638 614 655 965 1262 781 892 822 846 1261 1206
0 0 0 1 0 0 0 0 0 0 0 0 0 0 0 0 0 92 443 563 497 430 614 752 777 768 638 504 650 772 711 445 411 639 702 1167 1259 1057 803 428 850 656 927 816 683 907 680 1047 1249
0 0 0 0 0 0 0 0 0 0 0 0 0 0 0 0 207 415 538 422 433 550 602 657 623 670 571 607 575 590 682 752 845 804 836 1068 976 970 963 760 727 906 797 702 828 1031 662 921 1094
0 0 0 0 0 0 0 0 0 0 0 0 0 0 62 242 445 504 441 459 466 505 544 454 592 515 474 471 513 514 665 984 1159 842 655 816 766 1118 705 650 719 712 632 698 645 1004 1228 918 1129
0 0 0 0 5 0 3 8 0 0 0 0 0 0 274 306 578 531 500 494 467 481 467 517 497 428 386 415 487 608 741 699 799 713 573 709 755 598 546 620 692 625 628 542 622 927 715 991 791
0 0 1 0 0 3 20 61 46 0 0 0 0 0 108 498 614 538 524 514 459 451 477 465 348 327 309 393 416 718 667 743 977 633 661 984 791 371 513 649 728 620 691 639 856 1055 791 930 324
0 2 0 0 0 15 42 34 52 0 0 3 21 0 170 621 593 569 488 479 456 458 415 332 249 219 332 346 392 1135 1024 587 959 814 613 615 271 342 383 530 579 605 693 742 939 963 633 693 434
0 0 0 0 0 0 37 55 0 0 9 64 49 28 482 598 563 526 469 452 477 457 353 151 210 209 267 271 328 1067 473 457 824 676 663 904 809 172 175 356 463 373 401 712 573 545 617 507 468
CIN
0 0 0 0 0 0 0 0 0 0 -1 0 0 0 0 0 0 0 -47 -48 0 -45 -286 -439 -350 -313 -296 -276 -262 -271 -296 -268 0 0 0 0 0 0 0 0 0 0 0 0 0 0 0 0 0
0 0 0 0 0 0 0 0 0 -1 0 0 0 0 0 0 0 0 0 -47 -30 -82 -227 -369 -341 -309 -280 -251 -237 -222 -207 -223 -255 0 0 0 0 0 0 0 0 0 0 0 0 0 0 0 0
0 0 0 0 0 0 -1 -32 -9 -2 -13 0 0 0 0 0 0 0 -33 -51 -56 -118 -159 -268 -348 -303 -267 -242 -237 -199 -190 -182 -233 -260 -254 -173 -178 -219 -149 -188 -143 -51 -69 -108 -2 0 -17 0 -83
0 0 0 0 -2 0 0 -2 0 -2 -1 0 0 0 0 0 0 0 -51 -43 -52 -110 -125 -261 -355 -293 -256 -243 -235 -196 -180 -168 -188 -225 -201 -201 -188 -139 -122 -127 -66 -1 -2 -8 -29 -41 -62 -69 -60
0 0 0 0 0 0 -1 -2 0 -1 -1 -2 -1 0 0 -4 0 0 -59 -52 -51 -58 -106 -143 -318 -279 -236 -206 -208 -190 -167 -143 -123 -173 -190 -175 -104 -53 -43 -22 0 0 0 0 -1 0 -1 -14 -22
0 0 0 0 0 0 -1 -1 -1 -1 -1 -1 0 0 -1 -5 0 0 -20 -48 -44 -48 -94 -113 -277 -257 -226 -193 -181 -136 -120 -93 -62 -48 -50 -40 -7 -5 -13 0 0 0 0 -4 -29 -23 0 -3 -37
0 0 0 0 0 -1 0 0 0 0 -1 -1 -1 0 -1 -1 -18 0 -46 -40 -43 -49 -68 -117 -164 -233 -201 -161 -145 -110 -80 -63 -47 -33 -25 -2 -1 0 0 0 0 0 -15 -85 -95 -81 -41 -4 -18
0 0 0 0 0 0 0 0 -3 -1 -1 -4 0 -8 -1 0 -27 -34 -24 -12 -26 -40 -42 -103 -121 -133 -197 -217 -104 -93 -68 -45 -37 -21 -10 0 0 0 0 0 -9 -29 -108 -79 -198 -205 -118 -32 -4
0 0 0 0 0 0 -1 -1 -1 -3 -10 -3 -5 -3 -5 -18 0 -20 -15 -1 -1 -5 -35 -60 -94 -124 -164 -188 -170 -71 -79 -53 -17 -22 -1 0 -54 -74 -1 -8 -44 -62 -76 -148 -165 -180 0 -81 -57
0 -2 0 0 0 -1 -2 -2 -2 -1 -4 -13 -6 0 0 -2 -11 -13 -14 -6 -2 -2 -6 -36 -103 -115 -130 -151 -106 -105 -136 -126 -117 -90 -25 -3 -15 -27 -39 -13 -88 -74 -58 -104 -173 -218 -193 -149 0
0 0 -9 0 0 -1 -1 -1 -3 -1 0 -2 -1 0 -2 -11 -16 -15 -17 -16 -7 -1 -3 -19 -50 -88 -112 -127 -111 -81 -96 -107 -63 -29 0 -1 -18 -43 -36 -15 -11 -34 -8 -11 -17 -39 -47 -98 0
0 0 -9 -7 0 -1 -3 -1 0 -1 -1 -1 0 0 0 -27 -33 -23 -18 -13 -13 -16 -5 -5 -40 -138 -87 -69 -115 -108 -68 -50 -51 -38 -1 -1 -33 -32 -33 -22 -6 -2 0 0 -1 -5 -1 -36 -39
0 0 0 0 0 -2 0 -1 0 0 0 -2 0 0 0 -36 -37 0 0 0 -33 -45 -28 -14 -10 -116 -126 -38 -95 -114 -64 -79 -58 -69 -65 -87 -73 -2 -10 0 -7 -2 0 0 -2 -5 -7 -15 -42
0 0 0 0 0 -1 -2 0 0 -1 0 0 0 0 0 -8 0 0 0 0 -31 -50 -46 -43 -34 -76 -175 -117 -11 -38 -3 -55 -117 -116 -144 -88 -66 0 -13 -1 -2 0 0 0 0 -8 -6 -2 -15
0 0 0 0 0 0 -1 0 0 0 0 0 0 0 0 0 0 0 0 -28 -48 -78 -38 -47 -41 -55 -108 -98 -42 -41 -94 -146 -167 -178 -103 -144 -24 -5 -3 0 -1 -2 -5 0 0 0 -5 -3 -20
0 0 0 0 0 0 0 0 0 0 0 0 0 0 0 0 0 0 0 -38 -46 -48 -39 -78 -82 -133 -102 -75 -71 -73 -122 -190 -184 -203 -162 -71 -19 -11 -2 0 0 0 0 0 0 -1 0 -7 -7
0 0 0 0 0 0 -1 0 0 0 -1 -1 0 0 0 0 0 -31 0 0 -57 -49 -91 -87 -131 -191 -132 -67 -88 -64 -32 -195 -194 -165 -125 -49 -15 -7 -2 0 0 0 0 0 -2 0 0 -5 -4
0 0 0 0 0 0 0 0 0 0 0 0 0 0 0 0 0 -25 -39 0 -89 -139 -121 -145 -234 -185 -82 -100 -106 -196 -216 -181 -168 -130 -94 -34 -2 -1 0 0 0 0 0 -9 -2 0 0 0 0
0 0 0 0 0 0 0 0 0 0 0 0 0 0 -1 0 0 0 0 -118 -217 -221 -267 -321 -341 -132 -136 -184 -225 -206 -196 -140 -141 -107 -57 -23 0 -1 0 0 0 0 0 0 -1 -12 -20 0 0
0 0 0 0 0 -1 0 0 0 0 0 0 0 0 0 0 0 0 0 -129 -262 -320 -378 -396 -358 -220 -175 -203 -118 -137 -113 -130 -110 -50 -19 -5 0 -1 0 0 0 0 0 0 0 0 0 0 0
0 0 0 0 0 0 0 0 0 0 0 0 0 0 0 0 0 0 0 -151 -265 -356 -409 -394 -327 -251 -139 -95 -85 -140 -124 -56 -59 -61 -3 -5 -3 0 -1 0 0 0 0 -1 0 0 0 0 0
0 0 0 0 0 0 0 0 0 0 0 0 0 0 0 0 0 0 -9 -166 -278 -338 -381 -342 -283 -231 -184 -94 -42 -16 -76 -86 -37 -11 -1 -4 -2 0 0 0 0 0 0 0 0 0 0 0 0
0 0 0 0 0 0 0 0 0 0 0 0 0 0 0 0 0 0 -47 -185 -260 -350 -357 -282 -258 -231 -162 -136 -57 -96 -78 -98 -57 -17 0 -3 0 0 0 0 0 0 0 0 0 0 0 0 0
0 0 0 0 0 0 0 0 0 0 0 0 0 0 0 0 0 -25 -104 -218 -290 -347 -298 -260 -220 -172 -151 -144 -85 -41 -39 -44 -15 0 -1 -1 0 0 0 -1 -2 0 0 0 0 -1 0 0 0
0 0 0 0 0 0 0 0 0 0 0 0 0 0 0 0 -26 -64 -163 -246 -310 -293 -276 -239 -203 -150 -140 -98 -84 -60 -22 -4 0 0 0 0 0 0 0 -2 0 0 0 0 0 -1 0 -2 -1
0 0 0 0 0 0 0 0 0 0 0 0 0 0 -2 -21 -55 -118 -198 -232 -259 -275 -255 -235 -170 -152 -131 -106 -74 -52 -5 0 -4 -1 0 -1 0 0 0 0 0 0 0 0 0 0 0 0 0
0 0 0 0 0 0 0 -5 0 0 0 0 0 0 -22 -31 -82 -139 -161 -201 -226 -251 -236 -189 -152 -149 -133 -94 -60 -22 0 0 0 0 -1 -6 0 -1 0 0 0 0 0 -1 0 0 0 -1 -4
0 0 0 0 0 0 0 0 0 0 0 0 0 0 -63 -45 -92 -119 -161 -214 -217 -224 -195 -165 -172 -160 -132 -85 -56 -5 0 0 -1 0 0 -4 -1 0 0 0 0 0 0 0 0 0 0 -1 -23
0 0 0 0 0 0 0 0 -1 0 0 -36 -39 0 -43 -62 -74 -125 -167 -192 -195 -191 -176 -178 -173 -167 -109 -90 -41 -3 0 0 -2 0 0 -1 0 0 0 0 0 0 0 0 0 -2 -7 -3 -8
0 0 0 0 0 0 0 0 0 0 -44 -33 -13 -34 -35 -57 -71 -114 -146 -179 -168 -161 -171 -219 -171 -150 -118 -93 -44 -2 0 0 -1 -1 -1 -3 -6 -2 -11 -1 0 0 0 0 0 0 0 0 0
Wind_Speed
nan nan nan nan nan nan nan nan nan nan nan nan nan nan nan nan nan nan nan nan nan nan 55 56 55 57 56 52 50 47 45 nan nan nan nan nan nan nan nan nan nan nan nan nan nan nan nan nan nan
nan nan nan nan nan nan nan nan nan nan nan nan nan nan nan nan nan nan nan nan nan nan 51 54 56 57 59 56 51 48 47 47 nan nan nan nan nan nan nan nan nan nan nan nan nan nan nan nan nan
nan nan nan nan nan nan nan nan nan nan nan nan nan nan nan nan nan nan nan nan nan nan 51 53 59 57 57 55 50 47 48 50 48 nan nan nan nan nan nan nan nan nan nan nan nan nan nan nan nan
nan nan nan nan nan nan nan 17 nan nan nan nan nan nan nan nan nan nan nan nan nan nan 50 58 62 56 56 53 48 48 51 51 45 42 39 nan nan nan nan nan nan 21 15 13 15 17 nan nan 23
nan nan nan nan nan nan nan nan nan nan nan nan nan nan nan nan nan nan nan nan nan nan nan 58 62 57 54 52 50 50 54 46 42 41 40 39 37 35 34 31 28 26 19 14 13 10 15 16 20
nan nan nan nan nan nan nan nan nan nan nan nan nan nan nan nan nan nan nan nan nan nan nan 53 58 55 51 51 50 50 54 44 40 39 39 39 36 34 29 25 24 26 24 22 19 16 17 18 18
nan nan nan nan nan nan nan nan nan nan nan nan nan nan nan nan nan nan nan nan 39 nan 48 49 55 53 48 48 47 51 51 42 42 41 40 38 34 31 27 24 22 21 21 nan nan nan 17 19 19
nan nan nan nan nan nan nan nan nan nan nan nan nan nan nan nan nan nan nan nan nan 43 47 54 55 50 45 45 46 52 49 44 45 43 43 39 32 29 28 29 27 23 nan 22 nan nan nan 18 20
nan nan nan nan nan nan nan nan nan nan nan nan nan nan nan nan nan nan nan nan nan nan 47 53 57 43 44 46 49 51 48 47 44 42 41 38 32 29 35 30 30 35 28 nan nan nan nan nan nan
nan nan nan nan nan nan nan nan nan nan nan nan nan nan nan nan nan nan nan nan nan 40 51 53 55 46 44 44 49 50 47 43 42 38 37 38 34 31 29 28 35 33 29 25 nan nan nan nan nan
nan nan nan nan nan nan nan nan nan nan nan nan nan nan nan nan nan nan nan nan nan nan 45 50 53 44 40 45 47 46 42 39 38 40 39 36 33 32 31 28 33 31 32 25 28 26 23 nan nan
nan nan nan nan nan nan nan nan nan nan nan nan nan nan nan nan nan nan nan nan nan nan 45 49 51 43 42 40 46 46 39 38 38 42 42 37 33 32 29 28 26 33 25 24 24 24 27 nan nan
nan nan nan nan nan nan nan nan nan nan nan nan nan nan nan nan nan nan nan nan nan nan nan 40 46 43 43 39 45 39 38 40 40 44 43 38 35 31 30 28 30 26 22 24 26 25 28 27 nan
nan nan nan nan nan nan nan nan nan nan nan nan nan nan nan nan nan nan nan nan nan 23 nan 27 35 42 44 39 38 42 41 49 41 41 42 42 37 34 31 32 30 24 23 24 22 25 24 25 23
nan nan nan nan nan nan nan nan nan nan nan nan nan nan nan nan nan nan nan nan nan nan 26 24 28 41 39 39 39 41 44 49 52 44 41 41 40 35 31 28 29 27 27 24 19 18 19 19 18
nan nan nan nan nan nan nan nan nan nan nan nan nan nan nan nan nan nan nan nan 28 22 22 25 26 38 38 40 42 36 40 51 45 47 43 43 39 35 31 31 28 28 27 25 24 24 20 19 21
nan nan nan nan nan nan nan nan nan nan nan nan nan nan nan nan nan nan nan nan 21 18 20 20 25 34 38 40 39 40 40 42 43 45 43 43 38 35 35 31 29 27 28 26 25 22 22 23 23
nan nan nan nan nan nan nan nan nan nan nan nan nan nan nan nan nan nan nan nan nan 17 16 24 30 32 42 40 41 36 40 45 44 45 41 39 37 35 31 32 32 29 27 27 26 20 23 21 24
nan nan nan nan nan nan nan nan nan nan nan nan nan nan nan nan nan nan nan 32 22 19 24 27 33 35 39 40 38 41 42 42 44 42 39 36 35 31 34 32 31 25 29 27 25 23 19 22 29
nan nan nan nan nan nan nan nan nan nan nan nan nan nan nan nan nan nan nan 32 24 23 25 30 35 40 38 39 38 41 40 42 41 39 37 36 33 32 32 29 28 27 25 21 16 15 14 14 14
nan nan nan nan nan nan nan nan nan nan nan nan nan nan nan nan nan nan nan 27 26 24 27 33 38 41 41 42 40 39 40 37 36 36 36 37 33 30 32 28 26 20 14 15 16 12 11 10 13
nan nan nan nan nan nan nan nan nan nan nan nan nan nan nan nan nan nan 31 27 26 26 28 34 39 44 43 42 38 35 33 32 32 32 32 35 30 29 27 19 15 15 15 15 13 10 7 7 7
nan nan nan nan nan nan nan nan nan nan nan nan nan nan nan nan nan nan 26 27 26 26 28 34 41 44 43 36 33 32 25 30 29 27 28 29 22 21 16 16 16 14 14 8 4 2 2 2 3
nan nan nan nan nan nan nan nan nan nan nan nan nan nan nan nan nan nan 25 26 25 25 33 38 44 40 38 34 29 23 27 24 20 23 24 23 20 15 13 15 12 7 6 7 6 4 6 4 3
nan nan nan nan nan nan nan nan nan nan nan nan nan nan nan nan 20 22 25 24 24 31 37 42 39 36 33 28 27 25 25 20 20 18 19 17 13 13 12 7 5 5 6 9 8 9 6 5 3
nan nan nan nan nan nan nan nan nan nan nan nan nan nan nan 17 22 19 20 20 25 34 39 37 34 33 27 28 24 22 19 19 18 17 14 14 11 12 10 4 3 5 9 9 7 8 8 5 5
nan nan nan nan nan nan nan nan nan nan nan nan nan nan 19 14 17 18 19 20 30 35 35 33 31 27 27 24 23 17 17 16 19 15 11 12 11 11 6 3 1 6 5 6 7 4 4 6 8
nan nan nan nan nan nan nan nan nan nan nan nan nan nan 10 12 14 15 18 25 29 32 30 28 25 25 23 20 18 17 17 17 19 11 7 7 7 4 3 1 2 3 3 4 1 1 3 7 5
nan nan nan nan nan nan nan nan nan nan nan nan nan nan 13 11 13 17 21 28 31 29 28 24 21 23 20 19 18 17 17 16 12 8 7 8 6 5 4 2 1 3 4 2 4 7 4 6 5
nan nan nan nan nan nan nan nan nan nan nan nan nan nan 17 10 15 21 27 30 31 27 24 18 20 20 19 19 18 15 16 8 6 8 9 8 7 8 7 5 1 4 5 7 2 6 5 4 9
Wind_Direction
nan nan nan nan nan nan nan nan nan nan nan nan nan nan nan nan nan nan nan nan nan nan 318 325 325 322 321 325 327 326 326 nan nan nan nan nan nan nan nan nan nan nan nan nan nan nan nan nan nan
nan nan nan nan nan nan nan nan nan nan nan nan nan nan nan nan nan nan nan nan nan nan 322 329 325 321 320 324 328 328 327 328 nan nan nan nan nan nan nan nan nan nan nan nan nan nan nan nan nan
nan nan nan nan nan nan nan nan nan nan nan nan nan nan nan nan nan nan nan nan nan nan 324 329 327 325 323 327 329 329 331 332 331 nan nan nan nan nan nan nan nan nan nan nan nan nan nan nan nan
nan nan nan nan nan nan nan 323 nan nan nan nan nan nan nan nan nan nan nan nan nan nan 325 327 329 328 327 332 331 333 333 334 336 335 327 nan nan nan nan nan nan 308 313 300 276 262 nan nan 259
nan nan nan nan nan nan nan nan nan nan nan nan nan nan nan nan nan nan nan nan nan nan nan 328 329 327 328 331 333 334 335 336 336 332 326 323 320 313 308 302 301 300 295 282 284 273 254 246 250
nan nan nan nan nan nan nan nan nan nan nan nan nan nan nan nan nan nan nan nan nan nan nan 323 328 323 325 330 332 333 336 335 332 327 324 323 322 318 315 313 308 293 289 281 272 258 253 251 255
nan nan nan nan nan nan nan nan nan nan nan nan nan nan nan nan nan nan nan nan 322 nan 323 325 328 319 322 326 329 332 333 330 329 327 325 327 325 316 315 310 308 300 294 nan nan nan 249 243 250
nan nan nan nan nan nan nan nan nan nan nan nan nan nan nan nan nan nan nan nan nan 326 330 331 327 317 323 327 327 332 332 326 326 328 327 327 323 320 326 320 317 320 nan 291 nan nan nan 255 244
nan nan nan nan nan nan nan nan nan nan nan nan nan nan nan nan nan nan nan nan nan nan 332 329 332 319 321 326 327 329 329 325 325 329 328 324 318 321 329 330 310 310 307 nan nan nan nan nan nan
nan nan nan nan nan nan nan nan nan nan nan nan nan nan nan nan nan nan nan nan nan 328 328 331 331 315 318 319 328 325 324 323 327 327 328 323 323 314 309 294 309 311 311 306 nan nan nan nan nan
nan nan nan nan nan nan nan nan nan nan nan nan nan nan nan nan nan nan nan nan nan nan 317 327 321 305 313 318 320 315 314 321 328 334 326 325 316 312 314 313 310 305 314 298 302 303 289 nan nan
nan nan nan nan nan nan nan nan nan nan nan nan nan nan nan nan nan nan nan nan nan nan 316 315 318 304 304 313 318 314 312 320 327 328 325 322 319 322 320 312 306 300 295 290 285 280 265 nan nan
nan nan nan nan nan nan nan nan nan nan nan nan nan nan nan nan nan nan nan nan nan nan nan 301 310 309 304 316 315 315 312 312 320 321 322 324 325 321 318 310 303 293 299 291 282 275 279 278 nan
nan nan nan nan nan nan nan nan nan nan nan nan nan nan nan nan nan nan nan nan nan 302 nan 296 309 309 310 312 312 305 308 306 301 313 320 324 324 317 315 308 308 306 296 301 288 276 271 270 262
nan nan nan nan nan nan nan nan nan nan nan nan nan nan nan nan nan nan nan nan nan nan 287 294 302 309 310 305 311 306 301 297 326 317 318 321 320 317 313 310 304 304 296 295 289 289 284 273 272
nan nan nan nan nan nan nan nan nan nan nan nan nan nan nan nan nan nan nan nan 301 295 293 300 303 315 308 306 306 300 297 310 316 315 316 319 319 316 311 309 306 300 294 289 288 288 280 275 258
nan nan nan nan nan nan nan nan nan nan nan nan nan nan nan nan nan nan nan nan 295 288 291 300 308 312 310 303 300 299 308 309 307 313 312 315 317 315 310 307 304 301 298 295 289 276 285 274 265
nan nan nan nan nan nan nan nan nan nan nan nan nan nan nan nan nan nan nan nan nan 258 284 298 306 307 302 301 296 303 301 304 307 309 308 312 312 308 312 309 308 304 301 294 291 279 274 265 259
nan nan nan nan nan nan nan nan nan nan nan nan nan nan nan nan nan nan nan 275 259 274 292 306 311 304 300 300 302 298 300 300 304 306 309 310 310 311 311 310 309 308 300 300 292 274 258 264 255
nan nan nan nan nan nan nan nan nan nan nan nan nan nan nan nan nan nan nan 265 268 286 303 307 306 301 301 296 296 296 296 302 304 305 308 307 307 307 314 315 306 305 294 302 310 302 286 273 268
nan nan nan nan nan nan nan nan nan nan nan nan nan nan nan nan nan nan nan 260 272 288 300 301 301 301 304 300 295 294 294 292 302 306 310 311 308 311 313 313 306 309 309 307 308 304 297 269 267
nan nan nan nan nan nan nan nan nan nan nan nan nan nan nan nan nan nan 262 261 278 292 297 299 300 305 302 296 296 300 301 305 302 296 301 308 311 315 309 316 325 320 319 303 305 295 301 286 283
nan nan nan nan nan nan nan nan nan nan nan nan nan nan nan nan nan nan 257 267 289 295 294 297 301 305 297 305 299 301 307 304 302 308 308 317 318 315 335 334 335 338 316 320 355 5 353 324 313
nan nan nan nan nan nan nan nan nan nan nan nan nan nan nan nan nan nan 254 279 293 290 292 297 304 299 299 301 301 310 297 297 303 313 308 313 320 326 346 338 345 355 29 63 69 60 43 18 32
nan nan nan nan nan nan nan nan nan nan nan nan nan nan nan nan 245 247 276 294 293 295 296 302 304 301 305 307 311 302 304 310 319 316 321 333 329 340 359 3 26 63 49 54 48 31 39 53 60
nan nan nan nan nan nan nan nan nan nan nan nan nan nan nan 230 241 264 295 294 299 297 303 305 302 307 310 314 306 305 307 323 316 319 331 320 334 358 1 20 69 45 41 41 45 58 74 74 149
nan nan nan nan nan nan nan nan nan nan nan nan nan nan 261 235 255 287 295 300 301 304 307 301 305 308 315 311 303 304 317 315 318 321 341 328 359 1 4 260 93 62 62 70 63 91 77 215 166
nan nan nan nan nan nan nan nan nan nan nan nan nan nan 273 265 283 293 292 297 300 307 301 301 310 312 316 314 314 309 310 319 314 326 351 308 16 360 326 287 57 69 78 66 20 34 39 9 76
nan nan nan nan nan nan nan nan nan nan nan nan nan nan 282 297 293 287 292 295 305 305 301 308 310 316 316 324 328 302 307 327 300 339 360 327 32 41 30 341 110 161 168 172 300 340 352 48 22
nan nan nan nan nan nan nan nan nan nan nan nan nan nan 271 275 278 293 296 306 307 304 303 309 312 316 317 327 327 308 324 309 297 352 15 353 53 77 35 335 42 170 176 204 49 16 3 142 64